[[{"header":{"parameterUnit":"m.s-1","parameterCategory":2,"la1":30.2991,"la2":30.254,"lo1":-89.0895,"lo2":-89.0444,"dy":0.0017,"dx":0.0017,"nx":28,"ny":28,"refTime":"2023-09-01T21:00:00:Z","depth":"0","parameterNumber":2,"parameterNumberName":"U-component_of_CURRENTS"},"data":[0,0,0,0,0,0,0,0,0,0,0,0,0,0,0,0,0,0,0,0,0,0,0,0,0,0,0,0,0,0,0,0,0,0,0,0,0,0,0,0,0,0,0,0,0,0,0,0,0,0,0,0,0,0,0,0,0,0,-0.2335,-0.2335,0,-0.232,-0.232,-0.2319,-0.2312,-0.2313,-0.2313,-0.2313,-0.2255,-0.2253,-0.2251,0,0,0,0,0,0,0,0,0,0,0,0,0,-0.2292,-0.2293,-0.2335,-0.2335,-0.2335,-0.232,-0.2319,-0.2319,-0.2312,-0.2313,-0.2313,-0.2314,-0.2255,-0.2253,-0.2251,0,0,0,0,0,0,0,0,0,0,0,0,0,-0.2293,-0.2293,-0.2335,-0.2333,-0.2333,-0.232,-0.2319,-0.2319,-0.2312,-0.2313,-0.2313,-0.2314,-0.2256,-0.2253,-0.225,-0.222,0,0,-0.2242,-0.224,0,0,0,0,0,0,0,0,-0.2293,-0.2294,-0.2333,-0.2333,-0.2334,-0.2322,-0.2283,-0.2285,-0.2312,-0.2315,-0.2313,-0.2314,-0.2276,-0.2271,-0.2261,-0.2217,-0.2215,-0.2241,-0.224,-0.2238,-0.2237,0,0,0,0,0,0,0,-0.2293,-0.2295,-0.2325,-0.2334,-0.2334,-0.2311,-0.2312,-0.2283,-0.2288,-0.2315,-0.2316,-0.2321,-0.2275,-0.2264,-0.226,-0.2214,-0.2241,-0.2239,-0.2237,-0.2236,-0.219,-0.219,0,0,0,0,0,0,-0.2307,-0.2295,-0.2325,-0.2325,-0.2319,-0.2312,-0.2313,-0.2322,-0.2289,-0.2287,-0.232,-0.2321,-0.2269,-0.2263,-0.2258,-0.2262,-0.2238,-0.2236,-0.2234,-0.2189,-0.219,-0.219,0,0,0,0,0,0,-0.2306,-0.231,-0.2326,-0.2313,-0.2314,-0.2313,-0.2322,-0.2321,-0.2319,-0.2295,-0.229,-0.2321,-0.2269,-0.2262,-0.2246,-0.2258,-0.2234,-0.2232,-0.2188,-0.2189,-0.219,-0.2242,0,0,0,0,0,0,-0.2305,-0.231,-0.2312,-0.2314,-0.2315,-0.2325,-0.2322,-0.2321,-0.2322,-0.2323,-0.2293,-0.2288,-0.2269,-0.225,-0.2243,-0.2253,-0.2229,-0.2188,-0.2189,-0.219,-0.224,-0.2245,-0.2249,0,0,0,0,0,-0.2303,-0.2306,-0.2313,-0.2316,-0.2322,-0.2325,-0.2323,-0.2321,-0.2322,-0.232,-0.2307,-0.2289,-0.2252,-0.2248,-0.2239,-0.2249,-0.2187,-0.2189,-0.219,-0.2238,-0.2244,-0.2249,0,0,0,0,0,0,-0.2283,-0.2306,-0.2313,-0.2322,-0.2328,-0.2326,-0.232,-0.2324,-0.2311,-0.2309,-0.2288,-0.2282,-0.2275,-0.2252,-0.2249,-0.224,-0.2219,-0.2218,-0.2259,-0.2264,-0.2268,-0.2277,-0.2227,0,0,0,0,0,-0.2283,-0.2291,-0.231,-0.2313,-0.2319,-0.2321,-0.232,-0.2323,-0.2317,-0.2312,-0.2296,-0.2279,-0.227,-0.226,-0.2242,-0.2228,-0.2209,-0.2232,-0.2236,-0.224,-0.2242,-0.2234,-0.2238,-0.2194,-0.2194,-0.2194,0,0,-0.2274,-0.2288,-0.2291,-0.2309,-0.231,-0.2324,-0.232,-0.2322,-0.2335,-0.2305,-0.2305,-0.229,-0.227,-0.2265,-0.2259,-0.2248,-0.224,-0.2242,-0.2245,-0.2245,-0.2235,-0.224,-0.2244,-0.2195,-0.2195,-0.2195,0,0,-0.2261,-0.2276,-0.228,-0.2295,-0.2309,-0.2316,-0.2323,-0.2328,-0.2331,-0.2329,-0.2322,-0.2319,-0.2289,-0.229,-0.2284,-0.23,-0.2266,-0.2292,-0.2319,-0.2311,-0.2315,-0.2317,-0.229,-0.229,-0.2293,-0.2293,-0.2293,0,-0.2249,-0.2266,-0.2279,-0.2294,-0.2308,-0.232,-0.2333,-0.234,-0.234,-0.2346,-0.2335,-0.2321,-0.2305,-0.2316,-0.2327,-0.2311,-0.2291,-0.2301,-0.2317,-0.232,-0.2322,-0.2293,-0.2293,-0.2296,-0.2295,-0.2295,-0.2295,0,-0.2245,-0.2265,-0.2268,-0.2299,-0.2313,-0.2323,-0.2351,-0.2361,-0.2367,-0.2373,-0.2379,-0.2362,-0.2355,-0.2356,-0.2345,-0.2358,-0.2333,-0.2326,-0.2305,-0.233,-0.2298,-0.2296,-0.23,-0.2299,-0.2298,-0.2297,0,0,-0.2201,-0.2256,-0.2257,-0.228,-0.232,-0.2331,-0.2363,-0.2391,-0.2412,-0.2409,-0.2425,-0.2423,-0.2412,-0.2406,-0.2395,-0.2394,-0.2393,-0.2368,-0.2366,-0.2343,-0.2358,-0.228,-0.227,-0.2387,-0.2387,-0.2387,-0.2327,0,-0.2192,-0.2226,-0.2257,-0.2291,-0.2313,-0.2351,-0.238,-0.2409,-0.2427,-0.2444,-0.2443,-0.2443,-0.2433,-0.2426,-0.2427,-0.2401,-0.2392,-0.2409,-0.2335,-0.2332,-0.2263,-0.2267,-0.2163,-0.2095,-0.2325,-0.2325,-0.2325,0,-0.2171,-0.2205,-0.2237,-0.2302,-0.2314,-0.2337,-0.2391,-0.2418,-0.2457,-0.2466,-0.2476,-0.2473,-0.2474,-0.2457,-0.2428,-0.2436,-0.2401,-0.238,-0.2376,-0.2284,-0.2252,-0.2109,-0.2084,-0.2067,-0.2322,-0.2322,-0.2322,0,-0.2125,-0.2186,-0.2214,-0.2236,-0.231,-0.2331,-0.2364,-0.2415,-0.244,-0.2471,-0.2482,-0.2488,-0.2474,-0.2451,-0.2408,-0.2415,-0.2363,-0.2365,-0.2262,-0.2256,-0.2142,-0.2125,-0.2093,-0.2342,-0.2342,-0.2342,-0.2343,0,-0.2101,-0.212,-0.2196,-0.2213,-0.2246,-0.2305,-0.2338,-0.2375,-0.2424,-0.2437,-0.2477,-0.2477,-0.2472,-0.2445,-0.241,-0.232,-0.2359,-0.2261,-0.2236,-0.2155,-0.2141,-0.21,-0.212,-0.234,-0.2341,-0.2341,-0.2341,0,-0.2036,-0.2088,-0.2124,-0.2203,-0.2223,-0.224,-0.2309,-0.2328,-0.239,-0.2407,-0.2412,-0.2456,-0.2412,-0.2395,-0.2345,-0.2301,-0.2188,-0.2196,-0.2091,-0.2055,-0.1938,-0.1964,-0.1892,-0.1842,-0.2071,-0.2069,-0.2067,0,-0.2003,-0.2016,-0.2093,-0.2102,-0.2133,-0.2174,-0.2192,-0.228,-0.2304,-0.2378,-0.237,-0.2368,-0.2327,-0.2239,-0.216,-0.2069,-0.2084,-0.1935,-0.1936,-0.1911,-0.1923,-0.1945,-0.1911,-0.1803,-0.1799,-0.1796,-0.1794,0,-0.1929,-0.1955,-0.1979,-0.2009,-0.2031,-0.2065,-0.2105,-0.213,-0.2218,-0.2235,-0.2238,-0.2219,-0.2155,-0.2018,-0.1926,-0.1868,-0.188,-0.1865,-0.1869,-0.1732,-0.1724,-0.1669,-0.1864,-0.1765,-0.1768,-0.177,-0.1771,-0.1773,-0.1844,-0.1843,-0.187,-0.1882,-0.1909,-0.1923,-0.1905,-0.1959,-0.1971,-0.1965,-0.2041,-0.196,-0.1902,-0.175,-0.1701,-0.1584,-0.1654,-0.1539,-0.1577,-0.1607,-0.1545,-0.1667,-0.1525,-0.1526,-0.1528,-0.1529,-0.153,0,-0.1727,-0.1731,-0.1738,-0.1747,-0.1719,-0.1783,-0.1808,-0.1764,-0.1718,-0.1745,-0.171,-0.1627,-0.1512,-0.1488,-0.1387,-0.1321,-0.1309,-0.1306,-0.1328,-0.1311,-0.1428,-0.1402,-0.1189,-0.1189,-0.1189,-0.1189,-0.1189,-0.1189,-0.1658,-0.1617,-0.1625,-0.154,-0.1541,-0.1463,-0.1446,-0.1404,-0.1397,-0.1308,-0.1268,-0.1284,-0.1303,-0.1358,-0.127,-0.1211,-0.1204,-0.1151,-0.1203,-0.1308,-0.1334,-0.1359,-0.1339,-0.1116,-0.1116,-0.1024,-0.1024,-0.1023]},{"header":{"parameterUnit":"m.s-1","parameterCategory":2,"la1":30.2991,"la2":30.254,"lo1":-89.0895,"lo2":-89.0444,"dy":0.0017,"dx":0.0017,"nx":28,"ny":28,"refTime":"2023-09-01T21:00:00:Z","depth":"0","parameterNumber":3,"parameterNumberName":"V-component_of_CURRENTS"},"data":[0,0,0,0,0,0,0,0,0,0,0,0,0,0,0,0,0,0,0,0,0,0,0,0,0,0,0,0,0,0,0,0,0,0,0,0,0,0,0,0,0,0,0,0,0,0,0,0,0,0,0,0,0,0,0,0,0,0,-0.0128,-0.0127,0,-0.0049,-0.0048,-0.0047,0.0004,0.0004,0.0004,0.0005,0.011,0.0112,0.0115,0,0,0,0,0,0,0,0,0,0,0,0,0,-0.0188,-0.0187,-0.0128,-0.0127,-0.0126,-0.0049,-0.0048,-0.0047,0.0004,0.0004,0.0004,0.0005,0.0109,0.0112,0.0115,0,0,0,0,0,0,0,0,0,0,0,0,0,-0.0141,-0.0187,-0.0128,-0.0092,-0.0088,-0.0049,-0.0048,-0.0047,0.0004,0.0004,0.0005,0.0005,0.0108,0.0112,0.0115,0.0131,0,0,0.0127,0.0129,0,0,0,0,0,0,0,0,-0.0143,-0.0138,-0.0098,-0.0094,-0.0089,-0.0032,-0.0031,0.0014,0.0004,-0.003,0.0005,0.0005,0.0064,0.0072,0.0086,0.0136,0.014,0.0127,0.013,0.0131,0.0132,0,0,0,0,0,0,0,-0.0147,-0.0141,-0.0096,-0.0097,-0.0092,-0.0064,-0.0057,-0.0022,0.0014,-0.0027,-0.0024,-0.0016,0.0067,0.0082,0.0089,0.0142,0.0127,0.0131,0.0133,0.0135,0.0223,0.0223,0,0,0,0,0,0,-0.016,-0.0145,-0.0098,-0.0094,-0.0116,-0.0063,-0.0055,-0.0051,0.0014,0.0023,-0.0016,-0.0014,0.0075,0.0084,0.0093,0.0119,0.0131,0.0135,0.0137,0.0223,0.0223,0.0224,0,0,0,0,0,0,-0.0162,-0.0157,-0.0102,-0.0117,-0.0108,-0.0063,-0.0058,-0.0049,-0.0033,0.0022,0.0032,-0.0009,0.0076,0.0087,0.0126,0.0123,0.0137,0.014,0.0223,0.0223,0.0223,0.0168,0,0,0,0,0,0,-0.0164,-0.0158,-0.0161,-0.0119,-0.0108,-0.0083,-0.0058,-0.0048,-0.0029,-0.0025,0.0032,0.0042,0.0077,0.012,0.013,0.0128,0.0143,0.0223,0.0223,0.0223,0.017,0.0166,0.0163,0,0,0,0,0,-0.0167,-0.0171,-0.0162,-0.0156,-0.0113,-0.0083,-0.0075,-0.004,-0.003,-0.0024,0.0016,0.004,0.0128,0.0123,0.0135,0.0134,0.0223,0.0223,0.0223,0.0171,0.0167,0.0163,0,0,0,0,0,0,-0.0196,-0.0165,-0.0154,-0.0148,-0.0121,-0.0075,-0.0068,-0.0046,-0.001,-0.0007,0.0044,0.0057,0.0088,0.012,0.0114,0.0161,0.0178,0.0181,0.0135,0.0131,0.0128,0.0114,0.0146,0,0,0,0,0,-0.0206,-0.0203,-0.0166,-0.0163,-0.0152,-0.0112,-0.0097,-0.0074,-0.0037,-0.0021,0.0019,0.0061,0.0098,0.012,0.0157,0.0184,0.0216,0.0191,0.0188,0.0185,0.0181,0.0229,0.0229,0.0224,0.0224,0.0224,0,0,-0.0216,-0.02,-0.0197,-0.017,-0.0147,-0.0137,-0.0102,-0.0083,-0.0072,-0.0016,0.001,0.005,0.0102,0.0132,0.0149,0.0159,0.0203,0.0185,0.0182,0.018,0.0229,0.0229,0.023,0.0224,0.0224,0.0224,0,0,-0.024,-0.0223,-0.023,-0.0211,-0.0183,-0.0157,-0.0155,-0.0112,-0.009,-0.006,-0.0019,0.002,0.0075,0.0114,0.014,0.0142,0.0182,0.015,0.0126,0.0172,0.0172,0.0173,0.021,0.0215,0.0151,0.0151,0.0151,0,-0.0254,-0.026,-0.0226,-0.0228,-0.0219,-0.0171,-0.0176,-0.0145,-0.0094,-0.0077,-0.006,0.0025,0.0067,0.0111,0.011,0.0134,0.0163,0.0134,0.0166,0.0168,0.017,0.0208,0.0214,0.0148,0.0149,0.0149,0.0149,0,-0.0282,-0.0287,-0.0289,-0.0278,-0.0261,-0.0258,-0.0214,-0.0193,-0.0162,-0.0127,-0.008,-0.0017,0.0034,0.0053,0.0083,0.0117,0.0134,0.0153,0.0173,0.0167,0.0208,0.0215,0.0144,0.0145,0.0146,0.0147,0,0,-0.031,-0.0313,-0.0312,-0.0326,-0.0291,-0.0284,-0.0261,-0.0228,-0.0214,-0.0158,-0.0132,-0.0064,-0.0027,0.0005,0.0053,0.0094,0.0132,0.0123,0.0127,0.0153,0.0227,0.0261,0.0272,0.0156,0.0157,0.0158,0.0248,0,-0.0345,-0.0379,-0.0358,-0.038,-0.0395,-0.0346,-0.0334,-0.0294,-0.0244,-0.0204,-0.0129,-0.0086,-0.0045,-0.002,0.0028,0.0109,0.0149,0.0106,0.0235,0.0239,0.0264,0.0281,0.0308,0.0392,0.0255,0.0256,0.0257,0,-0.0376,-0.0399,-0.0438,-0.0449,-0.0449,-0.0446,-0.0416,-0.0394,-0.0317,-0.0279,-0.0212,-0.0148,-0.0072,-0.004,0.0093,0.0062,0.0134,0.0197,0.0202,0.0258,0.0286,0.0378,0.0411,0.052,0.0269,0.0268,0.0267,0,-0.0427,-0.045,-0.0491,-0.0493,-0.0493,-0.0493,-0.048,-0.0418,-0.04,-0.0316,-0.0288,-0.0187,-0.0131,-0.0028,0.0106,0.0098,0.0253,0.0262,0.036,0.0363,0.0425,0.0431,0.0574,0.0348,0.0348,0.0348,0.0348,0,-0.0475,-0.0504,-0.0522,-0.0546,-0.0586,-0.0552,-0.056,-0.0525,-0.0465,-0.0439,-0.0331,-0.0279,-0.0125,-0.0013,0.0097,0.0257,0.025,0.0361,0.0393,0.0406,0.041,0.0538,0.0576,0.0351,0.0351,0.035,0.0349,0,-0.0525,-0.0536,-0.0588,-0.0609,-0.0615,-0.0639,-0.0626,-0.0624,-0.0555,-0.0511,-0.0487,-0.0343,-0.0184,-0.0025,0.0157,0.0251,0.0469,0.045,0.0451,0.0482,0.0663,0.0695,0.0854,0.0924,0.0568,0.057,0.0571,0,-0.0556,-0.059,-0.0645,-0.0677,-0.0689,-0.0712,-0.0726,-0.0678,-0.0662,-0.0543,-0.0526,-0.036,-0.0218,0.0066,0.0261,0.047,0.0548,0.0599,0.0591,0.0686,0.0746,0.0758,0.0805,0.0651,0.0653,0.0654,0.0656,0,-0.0614,-0.0634,-0.0678,-0.0753,-0.0786,-0.082,-0.0824,-0.0827,-0.075,-0.068,-0.0548,-0.0417,-0.0123,0.0152,0.0415,0.0529,0.068,0.0634,0.0744,0.0834,0.0846,0.0924,0.0569,0.0668,0.0667,0.0666,0.0665,0.0665,-0.0648,-0.0699,-0.0758,-0.0823,-0.0867,-0.0906,-0.0918,-0.0885,-0.0839,-0.0695,-0.0572,-0.0309,0.0058,0.0454,0.0583,0.085,0.0808,0.092,0.0954,0.0959,0.1023,0.0689,0.0815,0.0815,0.0814,0.0814,0.0814,0,-0.0688,-0.0748,-0.0821,-0.0896,-0.0952,-0.0956,-0.0967,-0.0936,-0.0858,-0.0666,-0.0488,-0.0008,0.0351,0.0676,0.104,0.1169,0.119,0.1223,0.1254,0.129,0.1016,0.1017,0.1179,0.1178,0.1178,0.1178,0.1178,0.1178,-0.071,-0.0795,-0.084,-0.0945,-0.0992,-0.1031,-0.1029,-0.094,-0.0795,-0.0465,-0.0144,0.0123,0.0569,0.1122,0.1447,0.1462,0.1578,0.1549,0.1618,0.1432,0.1406,0.1382,0.1393,0.1631,0.1632,0.1884,0.1886,0.1888]}],[{"header":{"parameterUnit":"m.s-1","parameterCategory":2,"la1":30.2991,"la2":30.254,"lo1":-89.0895,"lo2":-89.0444,"dy":0.0017,"dx":0.0017,"nx":28,"ny":28,"refTime":"2023-09-01T21:00:00:Z","depth":"2","parameterNumber":2,"parameterNumberName":"U-component_of_CURRENTS"},"data":[0,0,0,0,0,0,0,0,0,0,0,0,0,0,0,0,0,0,0,0,0,0,0,0,0,0,0,0,0,0,0,0,0,0,0,0,0,0,0,0,0,0,0,0,0,0,0,0,0,0,0,0,0,0,0,0,0,0,-0.2044,-0.2044,0,-0.2033,-0.2032,-0.2032,-0.2023,-0.2023,-0.2024,-0.2024,-0.1987,-0.1986,-0.1985,0,0,0,0,0,0,0,0,0,0,0,0,0,-0.2017,-0.2017,-0.2044,-0.2044,-0.2045,-0.2033,-0.2032,-0.2032,-0.2023,-0.2023,-0.2024,-0.2024,-0.1987,-0.1986,-0.1984,0,0,0,0,0,0,0,0,0,0,0,0,0,-0.2016,-0.2018,-0.2044,-0.2041,-0.2041,-0.2033,-0.2032,-0.2032,-0.2023,-0.2023,-0.2024,-0.2024,-0.1988,-0.1986,-0.1984,-0.1966,0,0,-0.1979,-0.1978,0,0,0,0,0,0,0,0,-0.2016,-0.2017,-0.2042,-0.2042,-0.2042,-0.2033,-0.2009,-0.201,-0.2023,-0.2026,-0.2024,-0.2024,-0.2002,-0.1999,-0.1991,-0.1964,-0.1963,-0.1979,-0.1977,-0.1977,-0.1976,0,0,0,0,0,0,0,-0.2016,-0.2017,-0.2036,-0.2042,-0.2042,-0.2027,-0.2027,-0.2009,-0.2009,-0.2026,-0.2026,-0.203,-0.2001,-0.1993,-0.199,-0.1962,-0.1979,-0.1977,-0.1976,-0.1975,-0.1959,-0.196,0,0,0,0,0,0,-0.2027,-0.2017,-0.2037,-0.2036,-0.2034,-0.2027,-0.2027,-0.2032,-0.201,-0.2008,-0.203,-0.203,-0.1996,-0.1993,-0.1989,-0.2004,-0.1977,-0.1975,-0.1974,-0.1959,-0.1959,-0.196,0,0,0,0,0,0,-0.2026,-0.2029,-0.2037,-0.2029,-0.203,-0.2028,-0.2033,-0.2032,-0.2034,-0.2014,-0.2011,-0.2035,-0.1996,-0.1992,-0.1987,-0.2001,-0.1974,-0.1973,-0.1958,-0.1959,-0.196,-0.2009,0,0,0,0,0,0,-0.2025,-0.2028,-0.2031,-0.203,-0.2031,-0.2039,-0.2033,-0.2032,-0.2037,-0.2037,-0.2016,-0.2013,-0.1996,-0.199,-0.1985,-0.1998,-0.1971,-0.1957,-0.1958,-0.1959,-0.2006,-0.2011,-0.2016,0,0,0,0,0,-0.2024,-0.2026,-0.2031,-0.2033,-0.2036,-0.204,-0.2038,-0.2036,-0.2037,-0.2038,-0.203,-0.2014,-0.1994,-0.1988,-0.1983,-0.1996,-0.1956,-0.1958,-0.1959,-0.2004,-0.201,-0.2015,0,0,0,0,0,0,-0.201,-0.2025,-0.2031,-0.2036,-0.2043,-0.204,-0.2038,-0.2042,-0.2035,-0.2034,-0.2018,-0.2013,-0.2016,-0.1998,-0.1992,-0.1996,-0.1974,-0.1975,-0.201,-0.2016,-0.202,-0.2026,-0.197,0,0,0,0,0,-0.2011,-0.2016,-0.2031,-0.2033,-0.2039,-0.2041,-0.2042,-0.2044,-0.2041,-0.2039,-0.2029,-0.2019,-0.2015,-0.201,-0.1999,-0.1996,-0.1978,-0.2002,-0.2007,-0.2011,-0.2012,-0.2007,-0.2012,-0.1965,-0.1965,-0.1965,0,0,-0.2005,-0.2014,-0.2016,-0.203,-0.2032,-0.2046,-0.2041,-0.2046,-0.2059,-0.2035,-0.2042,-0.2032,-0.2018,-0.202,-0.2019,-0.2008,-0.2013,-0.2013,-0.2016,-0.2015,-0.201,-0.2014,-0.2018,-0.1966,-0.1966,-0.1966,0,0,-0.1995,-0.2006,-0.201,-0.2023,-0.2037,-0.2044,-0.2052,-0.2059,-0.2064,-0.207,-0.2063,-0.2066,-0.2049,-0.205,-0.2047,-0.2069,-0.2038,-0.2064,-0.2091,-0.2087,-0.2091,-0.2094,-0.207,-0.207,-0.2067,-0.2067,-0.2067,0,-0.1987,-0.1998,-0.201,-0.2022,-0.2036,-0.205,-0.2063,-0.2072,-0.2077,-0.2086,-0.2078,-0.2076,-0.2066,-0.208,-0.2091,-0.208,-0.2063,-0.2072,-0.2093,-0.2096,-0.2098,-0.2073,-0.2073,-0.2069,-0.2069,-0.2069,-0.2068,0,-0.1983,-0.1999,-0.2003,-0.2029,-0.2045,-0.2056,-0.2083,-0.2098,-0.2108,-0.2116,-0.213,-0.2119,-0.2118,-0.2121,-0.2112,-0.213,-0.2107,-0.21,-0.2079,-0.2106,-0.2077,-0.2076,-0.2073,-0.2072,-0.2071,-0.207,0,0,-0.1943,-0.1991,-0.1993,-0.2014,-0.2052,-0.2064,-0.2098,-0.2128,-0.2151,-0.2155,-0.2175,-0.2179,-0.2173,-0.217,-0.2163,-0.2164,-0.2167,-0.2141,-0.214,-0.2118,-0.2141,-0.2064,-0.2055,-0.2164,-0.2164,-0.2164,-0.2112,0,-0.1936,-0.1964,-0.1992,-0.2026,-0.2046,-0.2085,-0.2115,-0.2147,-0.2168,-0.219,-0.2194,-0.2201,-0.2193,-0.2192,-0.2195,-0.2175,-0.2168,-0.2181,-0.2118,-0.2116,-0.2045,-0.2053,-0.1905,-0.184,-0.2111,-0.211,-0.211,0,-0.1915,-0.1944,-0.1975,-0.2036,-0.2049,-0.2073,-0.2129,-0.2157,-0.22,-0.2213,-0.223,-0.2231,-0.2239,-0.2223,-0.2203,-0.221,-0.2179,-0.2161,-0.2158,-0.2069,-0.2037,-0.1859,-0.1828,-0.2108,-0.2109,-0.2109,-0.2109,0,-0.1872,-0.1928,-0.1955,-0.1976,-0.2047,-0.207,-0.2104,-0.2157,-0.2184,-0.2222,-0.2237,-0.225,-0.2243,-0.2226,-0.219,-0.2196,-0.2154,-0.2156,-0.2056,-0.2049,-0.19,-0.188,-0.2136,-0.2136,-0.2136,-0.2136,-0.2136,0,-0.1848,-0.1868,-0.1939,-0.1955,-0.199,-0.2047,-0.2084,-0.2123,-0.2175,-0.2193,-0.2237,-0.2241,-0.2244,-0.2224,-0.2193,-0.2111,-0.2152,-0.2055,-0.2032,-0.1912,-0.1894,-0.2112,-0.211,-0.2134,-0.2135,-0.2135,-0.2135,0,-0.1787,-0.1837,-0.1871,-0.1947,-0.1969,-0.1989,-0.2061,-0.2081,-0.2147,-0.217,-0.2179,-0.2226,-0.219,-0.2179,-0.2137,-0.2096,-0.204,-0.2,-0.1848,-0.1809,-0.1938,-0.1939,-0.1886,-0.1883,-0.188,-0.1878,-0.1876,0,-0.1756,-0.1768,-0.1844,-0.1856,-0.1887,-0.1932,-0.1952,-0.2041,-0.2065,-0.2144,-0.2139,-0.2145,-0.2106,-0.2029,-0.1956,-0.1872,-0.195,-0.17,-0.1691,-0.193,-0.1913,-0.1919,-0.1923,-0.1509,-0.1504,-0.15,-0.1497,0,-0.1687,-0.1714,-0.1737,-0.1771,-0.1796,-0.1831,-0.1874,-0.1899,-0.1987,-0.2008,-0.2015,-0.1997,-0.1937,-0.1783,-0.1698,-0.164,-0.1706,-0.1618,-0.1898,-0.1601,-0.1571,-0.1556,-0.1574,-0.1463,-0.1466,-0.1469,-0.1471,-0.1472,-0.1612,-0.1611,-0.1639,-0.1657,-0.1687,-0.1701,-0.1685,-0.1738,-0.1753,-0.1749,-0.182,-0.1728,-0.1717,-0.1492,-0.1411,-0.1351,-0.1469,-0.1409,-0.1422,-0.1439,-0.141,-0.1378,-0.1227,-0.1229,-0.1231,-0.1232,-0.1233,0,-0.1504,-0.1509,-0.1519,-0.1534,-0.1513,-0.1575,-0.1597,-0.1554,-0.1513,-0.153,-0.1496,-0.1322,-0.1218,-0.1212,-0.1059,-0.1036,-0.1043,-0.1001,-0.1009,-0.1042,-0.1073,-0.1028,-0.0742,-0.074,-0.0739,-0.0738,0,0,-0.1441,-0.1403,-0.1411,-0.1342,-0.1351,-0.1282,-0.1264,-0.122,-0.1203,-0.1115,-0.1057,-0.1125,-0.1158,-0.0941,-0.0901,-0.0792,-0.0911,-0.0754,-0.1146,-0.1187,-0.1216,-0.1301,-0.1268,0,0,0,0,0]},{"header":{"parameterUnit":"m.s-1","parameterCategory":2,"la1":30.2991,"la2":30.254,"lo1":-89.0895,"lo2":-89.0444,"dy":0.0017,"dx":0.0017,"nx":28,"ny":28,"refTime":"2023-09-01T21:00:00:Z","depth":"2","parameterNumber":3,"parameterNumberName":"V-component_of_CURRENTS"},"data":[0,0,0,0,0,0,0,0,0,0,0,0,0,0,0,0,0,0,0,0,0,0,0,0,0,0,0,0,0,0,0,0,0,0,0,0,0,0,0,0,0,0,0,0,0,0,0,0,0,0,0,0,0,0,0,0,0,0,-0.0238,-0.0237,0,-0.0176,-0.0175,-0.0174,-0.0135,-0.0135,-0.0135,-0.0135,-0.0038,-0.0036,-0.0033,0,0,0,0,0,0,0,0,0,0,0,0,0,-0.0279,-0.0279,-0.0238,-0.0237,-0.0236,-0.0176,-0.0175,-0.0174,-0.0135,-0.0135,-0.0135,-0.0135,-0.0039,-0.0036,-0.0033,0,0,0,0,0,0,0,0,0,0,0,0,0,-0.0243,-0.0279,-0.0238,-0.021,-0.0207,-0.0176,-0.0175,-0.0174,-0.0135,-0.0135,-0.0135,-0.0135,-0.004,-0.0036,-0.0033,-0.0016,0,0,-0.0022,-0.002,0,0,0,0,0,0,0,0,-0.0245,-0.0242,-0.0215,-0.0212,-0.0208,-0.0163,-0.0154,-0.0119,-0.0135,-0.0162,-0.0135,-0.0134,-0.0077,-0.007,-0.0059,-0.0011,-0.0007,-0.0021,-0.0019,-0.0018,-0.0017,0,0,0,0,0,0,0,-0.0248,-0.0244,-0.0213,-0.0214,-0.021,-0.0185,-0.018,-0.0147,-0.0121,-0.016,-0.0157,-0.0151,-0.0075,-0.0063,-0.0057,-0.0006,-0.0021,-0.0018,-0.0016,-0.0015,0.0074,0.0074,0,0,0,0,0,0,-0.0259,-0.0247,-0.0215,-0.0211,-0.0227,-0.0185,-0.0179,-0.0178,-0.0122,-0.0114,-0.0151,-0.0149,-0.0069,-0.0061,-0.0053,-0.0025,-0.0018,-0.0014,-0.0012,0.0074,0.0074,0.0074,0,0,0,0,0,0,-0.026,-0.0257,-0.0217,-0.0227,-0.0221,-0.0185,-0.0183,-0.0177,-0.0163,-0.0116,-0.0107,-0.0144,-0.0069,-0.0058,-0.002,-0.0021,-0.0013,-0.0009,0.0074,0.0074,0.0074,0.0027,0,0,0,0,0,0,-0.0262,-0.0258,-0.0261,-0.0228,-0.022,-0.0202,-0.0183,-0.0176,-0.016,-0.0157,-0.0107,-0.0097,-0.0068,-0.0026,-0.0017,-0.0016,-0.0007,0.0073,0.0074,0.0074,0.0029,0.0026,0.0024,0,0,0,0,0,-0.0263,-0.0269,-0.0262,-0.0258,-0.0226,-0.0202,-0.0195,-0.0169,-0.016,-0.0155,-0.0119,-0.0099,-0.0017,-0.0023,-0.0012,-0.0011,0.0073,0.0074,0.0074,0.003,0.0027,0.0024,0,0,0,0,0,0,-0.0287,-0.0265,-0.0256,-0.0254,-0.0232,-0.0195,-0.019,-0.0171,-0.014,-0.0137,-0.0093,-0.0081,-0.0051,-0.0022,-0.0029,0.0016,0.003,0.0033,-0.0007,-0.001,-0.0012,-0.0027,-0.0004,0,0,0,0,0,-0.0296,-0.0296,-0.0266,-0.0266,-0.0257,-0.0224,-0.0212,-0.0194,-0.0162,-0.0148,-0.0112,-0.0074,-0.0041,-0.0019,0.0013,0.0042,0.0071,0.0049,0.0047,0.0044,0.004,0.0085,0.0085,0.0076,0.0076,0.0076,0,0,-0.0304,-0.0293,-0.0292,-0.0271,-0.0252,-0.0245,-0.0216,-0.0201,-0.0191,-0.0142,-0.0118,-0.0082,-0.0036,-0.0007,0.001,0.0018,0.0063,0.0045,0.0042,0.004,0.0085,0.0086,0.0087,0.0076,0.0076,0.0076,0,0,-0.0325,-0.0313,-0.032,-0.0305,-0.0282,-0.0261,-0.0258,-0.0223,-0.0204,-0.0176,-0.014,-0.0103,-0.0053,-0.0019,0.0005,0.001,0.0046,0.0019,-0.0001,0.0041,0.0042,0.0044,0.0081,0.0085,0.002,0.002,0.002,0,-0.0336,-0.0345,-0.0317,-0.032,-0.0314,-0.0272,-0.0277,-0.0249,-0.0205,-0.0189,-0.0175,-0.0097,-0.0059,-0.0018,-0.0018,0.0004,0.0032,0.0004,0.0037,0.0039,0.0041,0.0079,0.0085,0.0018,0.0018,0.0019,0.0019,0,-0.0362,-0.0368,-0.0371,-0.0363,-0.035,-0.0347,-0.0309,-0.0289,-0.0262,-0.0231,-0.0187,-0.013,-0.0084,-0.0066,-0.004,-0.0006,0.0009,0.0025,0.0041,0.0039,0.0079,0.0086,0.0015,0.0016,0.0016,0.0017,0,0,-0.0387,-0.0392,-0.0391,-0.0404,-0.0376,-0.037,-0.035,-0.0321,-0.0308,-0.0256,-0.0232,-0.017,-0.0135,-0.0107,-0.0063,-0.0024,0.0014,0.0001,0.0004,0.003,0.0105,0.0132,0.0143,0.0035,0.0036,0.0037,0.0126,0,-0.0417,-0.0449,-0.0432,-0.0453,-0.0467,-0.0425,-0.0414,-0.0379,-0.0334,-0.0297,-0.0227,-0.0188,-0.0151,-0.0128,-0.0083,-0.0009,0.003,-0.0012,0.0109,0.0112,0.0131,0.0151,0.0131,0.0211,0.0133,0.0134,0.0135,0,-0.0445,-0.0467,-0.0503,-0.0515,-0.0516,-0.0514,-0.0489,-0.0469,-0.0398,-0.0364,-0.0301,-0.0244,-0.0172,-0.0144,-0.0019,-0.0048,0.0019,0.0077,0.0082,0.0128,0.0153,0.0202,0.0227,0.0148,0.0147,0.0146,0.0145,0,-0.0491,-0.0512,-0.055,-0.0553,-0.0555,-0.0557,-0.0545,-0.049,-0.0474,-0.0397,-0.0371,-0.0277,-0.0224,-0.0128,-0.0005,-0.0012,0.0133,0.0141,0.023,0.0233,0.025,0.0253,0.0223,0.0223,0.0223,0.0223,0.0222,0,-0.0533,-0.056,-0.0578,-0.06,-0.0638,-0.0609,-0.0618,-0.0586,-0.0532,-0.0508,-0.0408,-0.036,-0.0218,-0.0113,-0.0011,0.0137,0.0133,0.0232,0.0261,0.0234,0.0234,0.0205,0.0202,0.0226,0.0225,0.0225,0.0224,0,-0.0577,-0.0588,-0.0637,-0.0658,-0.0664,-0.0688,-0.0679,-0.0676,-0.0613,-0.0573,-0.0551,-0.0417,-0.027,-0.0123,0.0046,0.0133,0.0267,0.0317,0.0274,0.0297,0.0336,0.033,0.0424,0.0426,0.0427,0.0428,0.0429,0,-0.0605,-0.0637,-0.0689,-0.072,-0.0732,-0.0755,-0.0769,-0.0726,-0.0711,-0.0602,-0.0584,-0.0432,-0.0303,-0.0039,0.0138,0.033,0.0321,0.0408,0.0392,0.034,0.0359,0.035,0.0341,0.0398,0.0398,0.0399,0.0399,0,-0.0659,-0.0678,-0.0719,-0.079,-0.0822,-0.0854,-0.0859,-0.086,-0.079,-0.0727,-0.0605,-0.0487,-0.022,0.0009,0.025,0.0348,0.0375,0.0426,0.0398,0.0346,0.0322,0.0338,0.033,0.0405,0.0404,0.0404,0.0404,0.0403,-0.069,-0.0737,-0.0793,-0.0855,-0.0897,-0.0932,-0.0944,-0.0915,-0.0873,-0.0743,-0.0629,-0.0402,-0.02,0.0176,0.0326,0.046,0.0455,0.0483,0.0479,0.0474,0.0451,0.0431,0.053,0.053,0.053,0.053,0.053,0,-0.0729,-0.0783,-0.0851,-0.0922,-0.0975,-0.098,-0.0989,-0.0962,-0.0892,-0.0725,-0.0565,-0.0294,-0.0027,0.0185,0.0415,0.0537,0.0509,0.0541,0.0485,0.0479,0.0475,0.0449,0.0528,0.0529,0.0529,0.053,0,0,-0.075,-0.0828,-0.0869,-0.0968,-0.1013,-0.1052,-0.105,-0.097,-0.0844,-0.0664,-0.0467,-0.0234,0.0025,0.0185,0.0329,0.0445,0.0422,0.0442,0.043,0.0341,0.0334,0.0429,0.0383,0,0,0,0,0]}],[{"header":{"parameterUnit":"m.s-1","parameterCategory":2,"la1":30.2991,"la2":30.254,"lo1":-89.0895,"lo2":-89.0444,"dy":0.0017,"dx":0.0017,"nx":28,"ny":28,"refTime":"2023-09-01T21:00:00:Z","depth":"4","parameterNumber":2,"parameterNumberName":"U-component_of_CURRENTS"},"data":[0,0,0,0,0,0,0,0,0,0,0,0,0,0,0,0,0,0,0,0,0,0,0,0,0,0,0,0,0,0,0,0,0,0,0,0,0,0,0,0,0,0,0,0,0,0,0,0,0,0,0,0,0,0,0,0,0,0,-0.1407,-0.1407,0,-0.1432,-0.1433,-0.1433,-0.1456,-0.1456,-0.1456,-0.1457,-0.1493,-0.1493,-0.1494,0,0,0,0,0,0,0,0,0,0,0,0,0,-0.1367,-0.1367,-0.1407,-0.1408,-0.1408,-0.1432,-0.1433,-0.1433,-0.1455,-0.1456,-0.1457,-0.1457,-0.1492,-0.1493,-0.1494,0,0,0,0,0,0,0,0,0,0,0,0,0,-0.1385,-0.1367,-0.1407,-0.1424,-0.1426,-0.1432,-0.1433,-0.1433,-0.1455,-0.1456,-0.1457,-0.1457,-0.1492,-0.1493,-0.1494,-0.1486,0,0,-0.1496,-0.1497,0,0,0,0,0,0,0,0,-0.1384,-0.1387,-0.1421,-0.1423,-0.1425,-0.1443,-0.1432,-0.1452,-0.1455,-0.1442,-0.1457,-0.1458,-0.1478,-0.148,-0.148,-0.1487,-0.1489,-0.1496,-0.1497,-0.1497,-0.1497,0,0,0,0,0,0,0,-0.1383,-0.1386,-0.1415,-0.1421,-0.1424,-0.1426,-0.1429,-0.1435,-0.1455,-0.1443,-0.1445,-0.1451,-0.1479,-0.1479,-0.1481,-0.1489,-0.1496,-0.1497,-0.1498,-0.1498,-0.1561,-0.1562,0,0,0,0,0,0,-0.1384,-0.1385,-0.1414,-0.1416,-0.1408,-0.1426,-0.143,-0.1435,-0.1454,-0.1459,-0.145,-0.1452,-0.1478,-0.148,-0.1483,-0.1539,-0.1497,-0.1498,-0.1498,-0.156,-0.1561,-0.1563,0,0,0,0,0,0,-0.1383,-0.1386,-0.1413,-0.1402,-0.1406,-0.1427,-0.1432,-0.1435,-0.1463,-0.146,-0.1464,-0.1478,-0.1478,-0.1482,-0.1513,-0.1538,-0.1498,-0.1499,-0.1558,-0.156,-0.1562,-0.161,0,0,0,0,0,0,-0.1381,-0.1385,-0.1399,-0.1402,-0.1407,-0.1433,-0.1432,-0.1435,-0.1464,-0.1467,-0.1484,-0.1487,-0.1479,-0.1512,-0.1514,-0.1539,-0.15,-0.1557,-0.1559,-0.1561,-0.1607,-0.1614,-0.1619,0,0,0,0,0,-0.138,-0.1389,-0.1399,-0.1404,-0.1422,-0.1434,-0.1437,-0.1452,-0.1465,-0.1479,-0.1496,-0.1488,-0.1528,-0.1514,-0.1516,-0.1541,-0.1556,-0.1559,-0.1561,-0.1605,-0.1612,-0.1619,0,0,0,0,0,0,-0.1377,-0.1392,-0.1404,-0.1418,-0.1435,-0.1439,-0.1455,-0.1468,-0.1491,-0.1502,-0.1502,-0.1506,-0.1541,-0.1536,-0.1521,-0.1566,-0.1541,-0.1544,-0.1573,-0.158,-0.1586,-0.1583,-0.15,0,0,0,0,0,-0.1383,-0.1396,-0.1411,-0.1425,-0.1437,-0.1453,-0.1465,-0.1477,-0.1493,-0.1505,-0.152,-0.1535,-0.1549,-0.1562,-0.1569,-0.1596,-0.1579,-0.1614,-0.162,-0.1625,-0.1624,-0.1628,-0.1634,-0.1571,-0.1571,-0.1571,0,0,-0.1387,-0.1397,-0.1406,-0.1427,-0.1441,-0.1461,-0.1462,-0.1487,-0.1512,-0.1505,-0.1549,-0.1557,-0.156,-0.1589,-0.1604,-0.1592,-0.1633,-0.1628,-0.1632,-0.1629,-0.1631,-0.1637,-0.1643,-0.1573,-0.1573,-0.1573,0,0,-0.139,-0.1412,-0.1422,-0.1441,-0.1469,-0.1481,-0.1496,-0.152,-0.1542,-0.1578,-0.1581,-0.1608,-0.1631,-0.1638,-0.1643,-0.1688,-0.1663,-0.1694,-0.1724,-0.1728,-0.1733,-0.1737,-0.1718,-0.172,-0.1699,-0.1699,-0.1699,0,-0.1397,-0.1412,-0.1429,-0.1446,-0.1467,-0.1495,-0.1517,-0.1541,-0.1575,-0.1596,-0.1601,-0.1645,-0.1652,-0.1683,-0.17,-0.1701,-0.169,-0.1696,-0.1735,-0.1739,-0.1742,-0.1721,-0.1723,-0.1702,-0.1701,-0.1701,-0.1701,0,-0.1399,-0.1427,-0.1437,-0.1471,-0.1496,-0.1521,-0.1556,-0.1592,-0.1625,-0.1644,-0.1691,-0.1702,-0.1725,-0.1737,-0.1733,-0.1766,-0.1745,-0.174,-0.1715,-0.1751,-0.1727,-0.1728,-0.1705,-0.1704,-0.1704,-0.1703,0,0,-0.1372,-0.1429,-0.1436,-0.1464,-0.1515,-0.1534,-0.1586,-0.1632,-0.1669,-0.1705,-0.1743,-0.1776,-0.1784,-0.1791,-0.1794,-0.1803,-0.1818,-0.1787,-0.1786,-0.1762,-0.1812,-0.1687,-0.1675,-0.1822,-0.1822,-0.1823,-0.1782,0,-0.1373,-0.141,-0.1441,-0.1492,-0.1518,-0.157,-0.1614,-0.1663,-0.1705,-0.1748,-0.1772,-0.1805,-0.1804,-0.182,-0.1831,-0.1824,-0.1824,-0.1829,-0.1784,-0.1782,-0.1663,-0.1673,-0.1825,-0.1783,-0.1783,-0.1783,-0.1783,0,-0.1356,-0.139,-0.1436,-0.1511,-0.1528,-0.1567,-0.1646,-0.1689,-0.1754,-0.1784,-0.1823,-0.1839,-0.1868,-0.1857,-0.186,-0.1864,-0.1842,-0.1829,-0.1827,-0.1693,-0.1658,-0.1741,-0.1784,-0.1784,-0.1784,-0.1784,-0.1784,0,-0.1313,-0.1384,-0.1425,-0.1451,-0.1537,-0.1578,-0.1627,-0.17,-0.174,-0.1806,-0.1833,-0.1868,-0.1883,-0.1878,-0.1857,-0.1864,-0.1839,-0.1842,-0.1705,-0.1696,-0.18,-0.1796,-0.1834,-0.1834,-0.1834,-0.1834,-0.1834,0,-0.1283,-0.132,-0.1414,-0.1437,-0.1495,-0.1563,-0.1626,-0.168,-0.1752,-0.1781,-0.1845,-0.1856,-0.189,-0.1882,-0.1861,-0.1771,-0.184,-0.1701,-0.1676,-0.182,-0.1819,-0.1799,-0.1796,-0.1832,-0.1833,-0.1833,-0.1833,0,-0.1218,-0.1283,-0.1337,-0.144,-0.1475,-0.1515,-0.1618,-0.1649,-0.1734,-0.1771,-0.1791,-0.1851,-0.1827,-0.1834,-0.1812,-0.1754,-0.1698,-0.1649,-0.1786,-0.1772,-0.1552,-0.1552,-0.1491,-0.1486,-0.1482,-0.1479,-0.1476,0,-0.1184,-0.1207,-0.1322,-0.1353,-0.1402,-0.1477,-0.1516,-0.1621,-0.1649,-0.1743,-0.1738,-0.1761,-0.1775,-0.1638,-0.1666,-0.1598,-0.1581,-0.1546,-0.1563,-0.1534,-0.1517,-0.1523,-0.1528,-0.147,-0.1469,-0.1468,-0.1467,0,-0.1113,-0.1166,-0.1208,-0.1275,-0.1329,-0.1383,-0.1449,-0.1465,-0.1565,-0.1658,-0.1629,-0.1608,-0.1572,-0.1542,-0.1493,-0.1453,-0.157,-0.1504,-0.1512,-0.1528,-0.1507,-0.1496,-0.1506,-0.1453,-0.1455,-0.1456,-0.1457,0,-0.1054,-0.1067,-0.1126,-0.1172,-0.1237,-0.1257,-0.1317,-0.1339,-0.1385,-0.1494,-0.1473,-0.1495,-0.1547,-0.1464,-0.1424,-0.1368,-0.1351,-0.1314,-0.1333,-0.1348,-0.132,-0.1274,-0.1116,0,0,0,0,0,-0.0985,-0.098,-0.1015,-0.106,-0.1119,-0.1154,-0.1249,-0.1311,-0.1416,-0.1349,-0.141,-0.1367,-0.1308,-0.1329,-0.1236,-0.1358,-0.1357,-0.1246,-0.1327,-0.1375,-0.1391,-0.1371,0,0,0,0,0,0,-0.0934,-0.0957,-0.097,-0.0946,-0.0954,-0.1004,-0.1059,-0.1137,-0.1118,-0.1225,-0.1196,-0.1272,-0.1231,-0.1318,-0.1198,-0.1202,-0.1223,-0.127,-0.1266,-0.1366,-0.1381,-0.1394,-0.1378,0,0,0,0,0]},{"header":{"parameterUnit":"m.s-1","parameterCategory":2,"la1":30.2991,"la2":30.254,"lo1":-89.0895,"lo2":-89.0444,"dy":0.0017,"dx":0.0017,"nx":28,"ny":28,"refTime":"2023-09-01T21:00:00:Z","depth":"4","parameterNumber":3,"parameterNumberName":"V-component_of_CURRENTS"},"data":[0,0,0,0,0,0,0,0,0,0,0,0,0,0,0,0,0,0,0,0,0,0,0,0,0,0,0,0,0,0,0,0,0,0,0,0,0,0,0,0,0,0,0,0,0,0,0,0,0,0,0,0,0,0,0,0,0,0,-0.0227,-0.0227,0,-0.0195,-0.0195,-0.0195,-0.0181,-0.0181,-0.0181,-0.0181,-0.0112,-0.011,-0.0108,0,0,0,0,0,0,0,0,0,0,0,0,0,-0.0239,-0.0239,-0.0227,-0.0227,-0.0227,-0.0195,-0.0195,-0.0195,-0.0181,-0.0181,-0.0181,-0.0181,-0.0113,-0.011,-0.0108,0,0,0,0,0,0,0,0,0,0,0,0,0,-0.0223,-0.0239,-0.0227,-0.0216,-0.0215,-0.0196,-0.0195,-0.0194,-0.0181,-0.0181,-0.0181,-0.0181,-0.0113,-0.0111,-0.0108,-0.0088,0,0,-0.0099,-0.0098,0,0,0,0,0,0,0,0,-0.0224,-0.0222,-0.0218,-0.0217,-0.0215,-0.0192,-0.0174,-0.0157,-0.0181,-0.0193,-0.0181,-0.0181,-0.0136,-0.0131,-0.0125,-0.0085,-0.0082,-0.0099,-0.0097,-0.0096,-0.0095,0,0,0,0,0,0,0,-0.0225,-0.0223,-0.0214,-0.0218,-0.0216,-0.02,-0.0198,-0.017,-0.0163,-0.0192,-0.0191,-0.0188,-0.0135,-0.0128,-0.0123,-0.0081,-0.0099,-0.0096,-0.0095,-0.0093,-0.0017,-0.0017,0,0,0,0,0,0,-0.0231,-0.0225,-0.0215,-0.0213,-0.022,-0.02,-0.0198,-0.0199,-0.0164,-0.0159,-0.0188,-0.0188,-0.0132,-0.0126,-0.012,-0.0098,-0.0096,-0.0093,-0.0091,-0.0018,-0.0017,-0.0017,0,0,0,0,0,0,-0.0232,-0.0231,-0.0217,-0.0218,-0.0215,-0.02,-0.0202,-0.0199,-0.0194,-0.0162,-0.0156,-0.0186,-0.0132,-0.0124,-0.0096,-0.0095,-0.0092,-0.0089,-0.0018,-0.0018,-0.0017,-0.0051,0,0,0,0,0,0,-0.0232,-0.0232,-0.0237,-0.0219,-0.0216,-0.0209,-0.0201,-0.0198,-0.0192,-0.0191,-0.0158,-0.0152,-0.0132,-0.01,-0.0093,-0.0091,-0.0087,-0.0018,-0.0018,-0.0017,-0.0051,-0.0052,-0.0054,0,0,0,0,0,-0.0233,-0.024,-0.0237,-0.0236,-0.0223,-0.0209,-0.0206,-0.0194,-0.0192,-0.019,-0.0166,-0.0153,-0.0091,-0.0097,-0.0089,-0.0087,-0.0019,-0.0018,-0.0017,-0.005,-0.0052,-0.0054,0,0,0,0,0,0,-0.0247,-0.0238,-0.0236,-0.024,-0.0227,-0.0207,-0.0206,-0.0196,-0.0177,-0.0177,-0.0146,-0.0138,-0.0115,-0.0093,-0.01,-0.0062,-0.0054,-0.0051,-0.0081,-0.0083,-0.0084,-0.0097,-0.0085,0,0,0,0,0,-0.0253,-0.0258,-0.0242,-0.0246,-0.0242,-0.0224,-0.0218,-0.021,-0.019,-0.0182,-0.0158,-0.013,-0.0105,-0.0088,-0.0064,-0.0039,-0.0016,-0.0032,-0.0034,-0.0035,-0.004,-0.0,0.0001,-0.0015,-0.0015,-0.0015,0,0,-0.026,-0.0256,-0.0259,-0.025,-0.0241,-0.0238,-0.0221,-0.0215,-0.021,-0.0176,-0.0162,-0.0135,-0.01,-0.0077,-0.0064,-0.0058,-0.0017,-0.0034,-0.0036,-0.004,0.0,0.0002,0.0003,-0.0014,-0.0014,-0.0014,0,0,-0.0275,-0.0272,-0.0281,-0.0273,-0.0262,-0.025,-0.0249,-0.0229,-0.0219,-0.0199,-0.0175,-0.0147,-0.0109,-0.0083,-0.0065,-0.0056,-0.0029,-0.0049,-0.0063,-0.0026,-0.0024,-0.0023,0.001,0.0014,-0.0047,-0.0047,-0.0047,0,-0.0284,-0.0294,-0.028,-0.0284,-0.0284,-0.0258,-0.0265,-0.0247,-0.0219,-0.0209,-0.02,-0.0141,-0.0112,-0.0079,-0.0079,-0.006,-0.0037,-0.0062,-0.0028,-0.0026,-0.0024,0.0009,0.0014,-0.0049,-0.0048,-0.0048,-0.0048,0,-0.0303,-0.0312,-0.0315,-0.0316,-0.031,-0.0312,-0.0288,-0.0276,-0.026,-0.0239,-0.0206,-0.0163,-0.0129,-0.0113,-0.0094,-0.0064,-0.0051,-0.0038,-0.0028,-0.0025,0.001,0.0016,-0.0051,-0.005,-0.005,-0.0049,0,0,-0.0319,-0.033,-0.0331,-0.0344,-0.033,-0.033,-0.0318,-0.0301,-0.0293,-0.0256,-0.024,-0.0191,-0.0166,-0.0144,-0.011,-0.0075,-0.0039,-0.0055,-0.0052,-0.0029,0.0042,0.004,0.0047,-0.002,-0.0019,-0.0019,0.006,0,-0.034,-0.0368,-0.0361,-0.0383,-0.0396,-0.0372,-0.0367,-0.0345,-0.0315,-0.0288,-0.0235,-0.0206,-0.0177,-0.0161,-0.0121,-0.0059,-0.0023,-0.0061,0.0042,0.0045,0.0037,0.0053,-0.0016,0.0065,0.0066,0.0067,0.0068,0,-0.0358,-0.0379,-0.0412,-0.0431,-0.0433,-0.0439,-0.0429,-0.0416,-0.0366,-0.0342,-0.0295,-0.0251,-0.0191,-0.0169,-0.0062,-0.0088,-0.0031,0.0019,0.0023,0.0036,0.0054,0.0063,0.008,0.0079,0.0078,0.0077,0.0077,0,-0.0386,-0.0411,-0.0447,-0.0452,-0.0464,-0.0472,-0.0471,-0.0436,-0.0426,-0.0369,-0.0351,-0.0275,-0.0233,-0.0151,-0.0049,-0.0055,0.007,0.0077,0.0131,0.0132,0.0125,0.0122,0.015,0.015,0.0149,0.0149,0.0149,0,-0.0411,-0.0438,-0.0467,-0.0487,-0.0526,-0.0513,-0.053,-0.051,-0.0474,-0.0458,-0.0382,-0.0342,-0.0227,-0.0139,-0.0053,0.0061,0.0071,0.0131,0.0154,0.0109,0.0104,0.013,0.0126,0.0152,0.0151,0.0151,0.015,0,-0.0434,-0.0452,-0.0498,-0.0531,-0.0544,-0.057,-0.0581,-0.0583,-0.0541,-0.0512,-0.0496,-0.0388,-0.0268,-0.0149,-0.0005,0.0055,0.0163,0.02,0.0143,0.0161,0.0199,0.0193,0.0264,0.0265,0.0265,0.0265,0.0266,0,-0.0447,-0.0476,-0.0539,-0.0572,-0.0592,-0.0625,-0.0644,-0.0622,-0.0612,-0.0533,-0.0516,-0.0398,-0.0315,-0.0103,0.0011,0.0176,0.0196,0.0242,0.0218,0.0196,0.0212,0.0205,0.0198,0.0267,0.0267,0.0267,0.0267,0,-0.0475,-0.0503,-0.0542,-0.0617,-0.0656,-0.0693,-0.0709,-0.0706,-0.0661,-0.0629,-0.0512,-0.0391,-0.0252,-0.0095,0.0034,0.015,0.0205,0.0247,0.0247,0.0225,0.0201,0.0214,0.0207,0.0269,0.0269,0.0268,0.0268,0,-0.0492,-0.0531,-0.0589,-0.0648,-0.0705,-0.0736,-0.0744,-0.0711,-0.0689,-0.0589,-0.0551,-0.0386,-0.0289,-0.0108,0.0012,0.0125,0.0147,0.0167,0.0171,0.0171,0.0116,0.0069,0.0119,0,0,0,0,0,-0.0504,-0.0551,-0.0614,-0.0679,-0.0735,-0.0763,-0.0774,-0.0765,-0.072,-0.0639,-0.0588,-0.0449,-0.0241,-0.0145,-0.0031,-0.0003,0.0143,0.013,0.0162,0.0279,0.0277,0.0227,0,0,0,0,0,0,-0.0513,-0.0579,-0.0615,-0.0688,-0.0732,-0.0784,-0.0791,-0.0763,-0.0702,-0.0637,-0.0518,-0.044,-0.0236,-0.0305,-0.0033,0.0002,0.0033,0.0234,0.0236,0.028,0.0278,0.0276,0.0224,0,0,0,0,0]}]]